Regional Weather Roundup
Issued by NWS Mobile, AL

Home | Current Version | Previous Version | Text Only | Print | Product List | Glossary On
Versions: 1 2 3 4 5 6 7 8 9 10 11 12 13 14 15 16 17 18 19 20 21 22 23 24 25 26 27 28 29 30 31 32 33 34 35 36 37 38 39 40 41 42 43 44 45 46 47 48 49 50
403
ASUS44 KMOB 302213
RWRMOB
REGIONAL WEATHER ROUNDUP
NATIONAL WEATHER SERVICE MOBILE AL
500 PM CDT SAT JUL 30 2016

NOTE: "FAIR" INDICATES FEW OR NO CLOUDS BELOW 12,000 FEET WITH NO
      SIGNIFICANT WEATHER AND/OR OBSTRUCTIONS TO VISIBILITY.

  * THESE STATIONS ARE PART OF THE UNIVERSITY OF SOUTH ALABAMA
    MESONET AND ARE NOT UNDER NWS OR FAA QUALITY CONTROL.

ALZ061>064-302300-
COASTAL ALABAMA

CITY           SKY/WX    TMP DP  RH WIND       PRES   REMARKS
MOBILE REG APT PTSUNNY   88  76  67 S10       30.00S HX  99
BROOKLEY FIELD MOSUNNY   90  74  59 S9        29.99F HX  99
USA CAMPUS*    NOT AVBL
DOG RIVER*     NOT AVBL


CITY           SKY/WX    TMP DP  RH WIND       PRES   REMARKS
MOUNT VERNON*  NOT AVBL
SARALAND*      NOT AVBL
BAY MINETTE*   NOT AVBL
LOXLEY*        NOT AVBL
ROBERTSDALE*   NOT AVBL
FAIRHOPE*      NOT AVBL
ELBERTA*       NOT AVBL
FOLEY*         NOT AVBL
GRAND BAY*     NOT AVBL
DAUPHIN ISLND* NOT AVBL
BON SCOUR NWR* NOT AVBL
GULF SHORES    MOSUNNY   89  75  63 S12G22    29.99F HX 100

$$

ALZ051>060-302300-
INTERIOR SOUTHWEST AND SOUTH CENTRAL ALABAMA

CITY           SKY/WX    TMP DP  RH WIND       PRES   REMARKS
GREENVILLE     SUNNY     93  71  48 SW7       29.99F HX 100
EVERGREEN      MOSUNNY   93  71  48 VRB3      29.99S HX 100
CASTLEBERRY*   NOT AVBL
ATMORE*        NOT AVBL
DIXIE*         NOT AVBL
ANDALUSIA/OPP  CLOUDY    87  79  76 W6        30.01R HX 101
ANDALUSIA*     NOT AVBL
FLORALA APT    CLOUDY    82  74  76 SE10G18   30.05R THUNDER
FLORALA*       NOT AVBL

$$

FLZ001>006-302300-
WESTERN FLORIDA PANHANDLE

CITY           SKY/WX    TMP DP  RH WIND       PRES   REMARKS
PENSACOLA      MOSUNNY   90  76  63 S9        29.99F HX 101
NAS PENSACOLA  PTSUNNY   91  75  59 S10       29.99F HX 101
MILTON         SUNNY     91  76  61 S8        30.00S HX 103
WHTNG S FIELD  MOSUNNY   91  79  67 S6        30.00S HX 107


CITY           SKY/WX    TMP DP  RH WIND       PRES   REMARKS
WALNUT HILL*   NOT AVBL
JAY*           NOT AVBL
DUKE FIELD     SUNNY     90  73  57 VRB5      29.99S HX  97
CRESTVIEW      CLOUDY    90  74  59 S6        30.02R HX  99
VALPARAISO     PTSUNNY   89  77  66 VRB3      30.00R HX 101
DESTIN         MOSUNNY   91  80  70 VRB7      30.01R HX 109

$$

MSZ076-079-302300-
INTERIOR SOUTHEAST MISSISSIPPI

CITY           SKY/WX    TMP DP  RH WIND       PRES   REMARKS
LEAKESVILLE*   NOT AVBL
AGRICOLA*      NOT AVBL

$$

MARINE OBSERVATIONS

STATION/POSITION TIME  TEMP    WIND        PRES    WAVE
                       AIR SEA DIR/SP/G            HT/PER
                 (UTC) (F)     (DEG/KT/KT) (MB)    (FT/S)
PASCAGOULA       2100   88     220/  8/ 11 1015.7F
PETIT BOIS ISLND 2100   86     200/ 12/ 14 1016.6F
GRAND BAY        2000   89     200/  9     1018.0S
KATRINA CUT      2100   87     210/ 12     1016.3F
CEDAR POINT      2100   87     200/ 11     1015.9F
E DAUPHIN ISLAND 2200   87     220/  9/ 11 1015.5F
MIDDLE BAY LIGHT 2100   86     240/  9     1015.9F
USCG MOBILE BAY  2100   90 87  190/  6/ 11 1016.2F
STATE DOCKS      2100   90                 1015.6S
MEAHER PARK      2100   87     190/ 13     1015.6S
WEEKS BAY        2000   91                   N/A
FORT MORGAN      2100   88     230/ 11/ 14 1015.7F
12 S ORANGE BCH  2150   86 89  210/  8/ 10 1016.1F   1/ 3
PENSACOLA BAY    2100   89 89  210/  8/ 10 1016.2F
64 S DAUPHIN ISL 2200   86 89  360/  2/  4 1016.1F
67 S FORT MORGAN 2130   85     250/  4     1016.9S

$$

SELECTED LOCATIONS ACROSS THE REGION

CITY           SKY/WX    TMP DP  RH WIND       PRES   REMARKS
NEW ORLEANS    PTSUNNY   91  76  61 S8        29.99F HX 103
GULFPORT       PTSUNNY   87  76  69 VRB6      29.99S HX  97
PASCAGOULA AP  CLOUDY    88  78  72 S6        30.00R HX 101
PASCAGOULA*    NOT AVBL
HATTIESBURG    SUNNY     92  75  57 SE3       29.99F HX 103
LAUREL         MOSUNNY   91  72  52 CALM      30.00F HX  98
MERIDIAN       CLOUDY    88  75  65 CALM      30.00F HX  97
JACKSON        PTSUNNY   83  72  69 N13       30.01R
MONTGOMERY     MOSUNNY   93  73  52 S8        29.96F HX 102
TROY           CLOUDY    89  76  65 S5        30.01F HX 100
KINSTON*       NOT AVBL
GENEVA*        NOT AVBL
ASHFORD*       NOT AVBL
DOTHAN         CLOUDY    84  74  71 SW8       30.04R
PANAMA CITY    MOSUNNY   89  76  65 S9        30.00R HX 100

$$





USA.gov is the U.S. government's official web portal to all federal, state and local government web resources and services.